Time,TemperatureF,DewpointF,PressureIn,WindDirection,WindDirectionDegrees,WindSpeedMPH,WindSpeedGustMPH,Humidity,HourlyPrecipIn,Conditions,Clouds,dailyrainin,SoftwareType,DateUTC
2013-02-24 00:00:00,68.6,63.2,29.95,ENE,68,3.1,4.7,83,0.00,,,0.00,WUHU216HW,2013-02-23 21:00:00,
2013-02-24 00:05:00,68.6,63.2,29.95,East,90,3.1,4.7,83,0.00,,,0.00,WUHU216HW,2013-02-23 21:05:00,
2013-02-24 00:10:00,68.6,63.2,29.95,SE,135,2.2,4.0,83,0.00,,,0.00,WUHU216HW,2013-02-23 21:10:00,
2013-02-24 00:15:00,68.6,63.2,29.95,SE,135,3.1,4.0,83,0.00,,,0.00,WUHU216HW,2013-02-23 21:15:00,
2013-02-24 00:20:00,68.6,63.2,29.95,SE,135,2.5,3.6,83,0.00,,,0.00,WUHU216HW,2013-02-23 21:20:00,
2013-02-24 00:25:00,68.6,63.2,29.94,ESE,113,4.5,4.5,83,0.00,,,0.00,WUHU216HW,2013-02-23 21:25:00,
2013-02-24 00:30:00,68.6,63.2,29.94,SE,135,2.5,4.5,83,0.00,,,0.00,WUHU216HW,2013-02-23 21:30:00,
2013-02-24 00:35:00,68.4,63.1,29.94,SE,135,4.0,4.5,83,0.00,,,0.00,WUHU216HW,2013-02-23 21:35:00,
2013-02-24 00:40:00,68.4,63.1,29.94,ESE,113,4.0,4.0,83,0.00,,,0.00,WUHU216HW,2013-02-23 21:40:00,
2013-02-24 00:45:00,68.4,63.4,29.94,SE,135,2.7,4.9,84,0.00,,,0.00,WUHU216HW,2013-02-23 21:45:00,
2013-02-24 00:50:00,68.4,63.4,29.93,ESE,113,3.8,4.9,84,0.00,,,0.00,WUHU216HW,2013-02-23 21:50:00,
2013-02-24 00:55:00,68.4,63.4,29.93,SSE,158,5.1,5.1,84,0.00,,,0.00,WUHU216HW,2013-02-23 21:55:00,
2013-02-24 01:00:00,68.4,63.4,29.93,SE,135,4.7,6.5,84,0.00,,,0.00,WUHU216HW,2013-02-23 22:00:00,
2013-02-24 01:05:00,68.4,63.4,29.93,ESE,113,4.3,6.5,84,0.00,,,0.00,WUHU216HW,2013-02-23 22:05:00,
2013-02-24 01:10:00,68.4,63.4,29.93,ESE,113,4.0,6.5,84,0.00,,,0.00,WUHU216HW,2013-02-23 22:10:00,
2013-02-24 01:15:00,68.4,63.4,29.93,SE,135,3.4,6.5,84,0.00,,,0.00,WUHU216HW,2013-02-23 22:15:00,
2013-02-24 01:20:00,68.4,63.7,29.93,ESE,113,4.9,5.6,85,0.00,,,0.00,WUHU216HW,2013-02-23 22:20:00,
2013-02-24 01:25:00,68.4,63.7,29.92,SSE,158,5.1,6.9,85,0.00,,,0.00,WUHU216HW,2013-02-23 22:25:00,
2013-02-24 01:30:00,68.4,63.7,29.92,ESE,113,4.9,6.9,85,0.00,,,0.00,WUHU216HW,2013-02-23 22:30:00,
2013-02-24 01:35:00,68.4,63.7,29.92,ESE,113,5.4,6.5,85,0.00,,,0.00,WUHU216HW,2013-02-23 22:35:00,
2013-02-24 01:40:00,68.4,63.7,29.91,SE,135,3.6,6.5,85,0.00,,,0.00,WUHU216HW,2013-02-23 22:40:00,
2013-02-24 01:45:00,68.4,64.0,29.91,ESE,113,4.5,5.8,86,0.00,,,0.00,WUHU216HW,2013-02-23 22:45:00,
2013-02-24 01:50:00,68.4,64.0,29.91,SE,135,3.6,6.3,86,0.00,,,0.00,WUHU216HW,2013-02-23 22:50:00,
2013-02-24 01:55:00,68.4,64.0,29.91,ESE,113,6.3,6.3,86,0.00,,,0.00,WUHU216HW,2013-02-23 22:55:00,
2013-02-24 02:00:00,68.4,64.0,29.91,SE,135,6.9,6.9,86,0.00,,,0.00,WUHU216HW,2013-02-23 23:00:00,
2013-02-24 02:05:00,68.4,64.0,29.91,ESE,113,4.3,6.9,86,0.00,,,0.00,WUHU216HW,2013-02-23 23:05:00,
2013-02-24 02:10:00,68.2,63.9,29.91,SE,135,4.0,5.4,86,0.00,,,0.00,WUHU216HW,2013-02-23 23:10:00,
2013-02-24 02:16:00,68.2,63.9,29.90,SE,135,4.7,5.4,86,0.00,,,0.00,WUHU216HW,2013-02-23 23:16:00,
2013-02-24 02:21:00,68.2,63.9,29.90,SE,135,6.9,6.9,86,0.00,,,0.00,WUHU216HW,2013-02-23 23:21:00,
2013-02-24 02:26:00,68.2,64.2,29.90,SE,135,5.4,8.1,87,0.00,,,0.00,WUHU216HW,2013-02-23 23:26:00,
2013-02-24 02:31:00,68.2,64.2,29.89,SE,135,4.0,8.5,87,0.00,,,0.00,WUHU216HW,2013-02-23 23:31:00,
2013-02-24 02:36:00,68.2,64.2,29.89,SE,135,5.8,9.2,87,0.00,,,0.00,WUHU216HW,2013-02-23 23:36:00,
2013-02-24 02:41:00,68.2,64.2,29.90,SE,135,5.4,9.2,87,0.00,,,0.00,WUHU216HW,2013-02-23 23:41:00,
2013-02-24 02:46:00,68.2,64.2,29.90,SSE,158,4.7,8.5,87,0.00,,,0.00,WUHU216HW,2013-02-23 23:46:00,
2013-02-24 02:51:00,68.2,64.2,29.90,SE,135,3.8,6.7,87,0.00,,,0.00,WUHU216HW,2013-02-23 23:51:00,
2013-02-24 02:56:00,68.2,64.2,29.90,SE,135,5.4,6.3,87,0.00,,,0.00,WUHU216HW,2013-02-23 23:56:00,
2013-02-24 03:01:00,68.2,64.2,29.90,SE,135,4.0,6.3,87,0.00,,,0.00,WUHU216HW,2013-02-24 00:01:00,
2013-02-24 03:06:00,68.2,64.2,29.90,SE,135,5.4,7.2,87,0.00,,,0.00,WUHU216HW,2013-02-24 00:06:00,
2013-02-24 03:11:00,68.2,64.2,29.90,SE,135,3.6,7.2,87,0.00,,,0.00,WUHU216HW,2013-02-24 00:11:00,
2013-02-24 03:16:00,68.2,64.2,29.91,SSE,158,5.4,7.6,87,0.00,,,0.00,WUHU216HW,2013-02-24 00:16:00,
2013-02-24 03:21:00,68.2,64.2,29.91,ESE,113,5.6,7.6,87,0.00,,,0.00,WUHU216HW,2013-02-24 00:21:00,
2013-02-24 03:26:00,68.2,64.2,29.91,SE,135,5.4,6.9,87,0.00,,,0.00,WUHU216HW,2013-02-24 00:26:00,
2013-02-24 03:31:00,68.2,64.2,29.90,SSE,158,4.0,7.4,87,0.00,,,0.00,WUHU216HW,2013-02-24 00:31:00,
2013-02-24 03:36:00,68.2,64.2,29.90,SSE,158,6.7,7.8,87,0.00,,,0.00,WUHU216HW,2013-02-24 00:36:00,
2013-02-24 03:41:00,68.2,64.2,29.90,ESE,113,4.0,7.8,87,0.00,,,0.00,WUHU216HW,2013-02-24 00:41:00,
2013-02-24 03:46:00,68.2,64.2,29.90,SE,135,4.5,8.3,87,0.00,,,0.00,WUHU216HW,2013-02-24 00:46:00,
2013-02-24 03:51:00,68.2,64.2,29.90,SSE,158,4.0,8.3,87,0.00,,,0.00,WUHU216HW,2013-02-24 00:51:00,
2013-02-24 03:56:00,68.2,64.2,29.90,SSE,158,3.8,7.2,87,0.00,,,0.00,WUHU216HW,2013-02-24 00:56:00,
2013-02-24 04:01:00,68.2,64.2,29.90,SE,135,6.0,8.3,87,0.00,,,0.00,WUHU216HW,2013-02-24 01:01:00,
2013-02-24 04:06:00,68.2,64.2,29.90,ESE,113,5.4,8.3,87,0.00,,,0.00,WUHU216HW,2013-02-24 01:06:00,
2013-02-24 04:11:00,68.2,64.2,29.90,SE,135,6.3,8.5,87,0.00,,,0.00,WUHU216HW,2013-02-24 01:11:00,
2013-02-24 04:16:00,68.2,64.2,29.89,ESE,113,7.6,8.5,87,0.00,,,0.00,WUHU216HW,2013-02-24 01:16:00,
2013-02-24 04:21:00,68.2,64.2,29.89,SE,135,5.1,8.1,87,0.00,,,0.00,WUHU216HW,2013-02-24 01:21:00,
2013-02-24 04:26:00,68.2,64.2,29.89,South,180,7.2,8.1,87,0.00,,,0.00,WUHU216HW,2013-02-24 01:26:00,
2013-02-24 04:31:00,68.2,64.2,29.89,SE,135,8.5,8.9,87,0.00,,,0.00,WUHU216HW,2013-02-24 01:31:00,
2013-02-24 04:36:00,68.4,64.0,29.88,SSE,158,9.4,10.1,86,0.00,,,0.00,WUHU216HW,2013-02-24 01:36:00,
2013-02-24 04:41:00,68.4,64.0,29.88,SE,135,7.6,12.1,86,0.00,,,0.00,WUHU216HW,2013-02-24 01:41:00,
2013-02-24 04:46:00,68.4,64.0,29.88,SE,135,8.1,14.1,86,0.00,,,0.00,WUHU216HW,2013-02-24 01:46:00,
2013-02-24 04:51:00,68.4,64.0,29.87,SE,135,11.4,14.1,86,0.00,,,0.00,WUHU216HW,2013-02-24 01:51:00,
2013-02-24 04:56:00,68.4,64.0,29.87,ESE,113,6.9,11.4,86,0.00,,,0.00,WUHU216HW,2013-02-24 01:56:00,
2013-02-24 05:01:00,68.6,64.2,29.87,ESE,113,5.6,11.4,86,0.00,,,0.00,WUHU216HW,2013-02-24 02:01:00,
2013-02-24 05:06:00,68.6,64.5,29.87,ESE,113,8.3,11.0,87,0.00,,,0.00,WUHU216HW,2013-02-24 02:06:00,
2013-02-24 05:11:00,68.6,64.5,29.87,SE,135,10.7,11.4,87,0.00,,,0.00,WUHU216HW,2013-02-24 02:11:00,
2013-02-24 05:16:00,68.6,64.5,29.87,ESE,113,9.2,11.4,87,0.00,,,0.00,WUHU216HW,2013-02-24 02:16:00,
2013-02-24 05:21:00,68.6,64.5,29.88,SE,135,8.5,11.4,87,0.00,,,0.00,WUHU216HW,2013-02-24 02:21:00,
2013-02-24 05:26:00,68.6,64.5,29.89,SSE,158,6.7,11.4,87,0.00,,,0.00,WUHU216HW,2013-02-24 02:26:00,
2013-02-24 05:31:00,68.4,64.4,29.93,NW,315,1.8,10.3,87,0.00,,,0.00,WUHU216HW,2013-02-24 02:31:00,
2013-02-24 05:36:00,68.4,64.4,29.94,NE,45,0.9,6.7,87,0.00,,,0.00,WUHU216HW,2013-02-24 02:36:00,
2013-02-24 05:41:00,68.4,64.4,29.95,ESE,113,1.6,3.6,87,0.00,,,0.00,WUHU216HW,2013-02-24 02:41:00,
2013-02-24 05:46:00,68.2,64.2,29.95,ESE,113,0.9,2.5,87,0.00,,,0.00,WUHU216HW,2013-02-24 02:46:00,
2013-02-24 05:51:00,68.2,64.2,29.96,ESE,113,1.1,2.5,87,0.00,,,0.00,WUHU216HW,2013-02-24 02:51:00,
2013-02-24 05:56:00,68.2,64.2,29.96,SE,135,2.0,2.5,87,0.00,,,0.00,WUHU216HW,2013-02-24 02:56:00,
2013-02-24 06:01:00,68.0,64.0,29.96,SE,135,1.6,3.8,87,0.00,,,0.00,WUHU216HW,2013-02-24 03:01:00,
2013-02-24 06:06:00,68.0,63.7,29.96,SSE,158,2.2,3.8,86,0.00,,,0.00,WUHU216HW,2013-02-24 03:06:00,
2013-02-24 06:11:00,68.2,63.9,29.96,SSE,158,1.6,3.1,86,0.00,,,0.00,WUHU216HW,2013-02-24 03:11:00,
2013-02-24 06:16:00,68.2,63.9,29.96,SE,135,2.7,3.8,86,0.00,,,0.00,WUHU216HW,2013-02-24 03:16:00,
2013-02-24 06:21:00,68.2,63.9,29.97,SE,135,0.0,3.8,86,0.00,,,0.00,WUHU216HW,2013-02-24 03:21:00,
2013-02-24 06:26:00,68.4,64.0,29.97,SE,135,0.4,3.4,86,0.00,,,0.00,WUHU216HW,2013-02-24 03:26:00,
2013-02-24 06:31:00,68.4,64.0,29.97,SE,135,2.2,2.7,86,0.00,,,0.00,WUHU216HW,2013-02-24 03:31:00,
2013-02-24 06:36:00,68.6,64.2,29.97,ESE,113,2.7,2.7,86,0.00,,,0.00,WUHU216HW,2013-02-24 03:36:00,
2013-02-24 06:41:00,68.8,64.4,29.96,SE,135,4.5,4.5,86,0.00,,,0.00,WUHU216HW,2013-02-24 03:41:00,
2013-02-24 06:46:00,68.8,64.4,29.96,SE,135,5.4,5.6,86,0.00,,,0.00,WUHU216HW,2013-02-24 03:46:00,
2013-02-24 06:51:00,68.9,64.9,29.96,ESE,113,4.5,6.9,87,0.00,,,0.00,WUHU216HW,2013-02-24 03:51:00,
2013-02-24 06:56:00,69.1,64.7,29.96,ESE,113,5.4,6.9,86,0.00,,,0.00,WUHU216HW,2013-02-24 03:56:00,
2013-02-24 07:01:00,69.1,64.7,29.96,SE,135,4.7,5.6,86,0.00,,,0.00,WUHU216HW,2013-02-24 04:01:00,
2013-02-24 07:06:00,69.3,64.9,29.96,ESE,113,3.4,6.3,86,0.00,,,0.00,WUHU216HW,2013-02-24 04:06:00,
2013-02-24 07:11:00,69.3,64.9,29.96,SSE,158,4.7,6.9,86,0.00,,,0.00,WUHU216HW,2013-02-24 04:11:00,
2013-02-24 07:16:00,69.5,65.1,29.96,SE,135,4.9,6.9,86,0.00,,,0.00,WUHU216HW,2013-02-24 04:16:00,
2013-02-24 07:21:00,69.5,65.1,29.96,SSE,158,5.6,6.9,86,0.00,,,0.00,WUHU216HW,2013-02-24 04:21:00,
2013-02-24 07:26:00,69.5,65.1,29.97,ESE,113,3.6,6.0,86,0.00,,,0.00,WUHU216HW,2013-02-24 04:26:00,
2013-02-24 07:31:00,69.5,65.1,29.97,ESE,113,3.4,6.0,86,0.00,,,0.00,WUHU216HW,2013-02-24 04:31:00,
2013-02-24 07:36:00,69.7,65.3,29.97,East,90,1.8,5.8,86,0.00,,,0.00,WUHU216HW,2013-02-24 04:36:00,
2013-02-24 07:41:00,69.8,65.4,29.98,SE,135,3.8,4.7,86,0.00,,,0.00,WUHU216HW,2013-02-24 04:41:00,
2013-02-24 07:46:00,69.8,65.4,29.98,ESE,113,3.4,5.1,86,0.00,,,0.00,WUHU216HW,2013-02-24 04:46:00,
2013-02-24 07:51:00,70.0,65.6,29.97,ESE,113,3.4,5.4,86,0.00,,,0.00,WUHU216HW,2013-02-24 04:51:00,
2013-02-24 07:56:00,70.2,65.8,29.98,ESE,113,4.0,5.4,86,0.00,,,0.00,WUHU216HW,2013-02-24 04:56:00,
2013-02-24 08:00:00,70.2,65.8,29.97,East,90,5.4,6.7,86,0.00,,,0.00,WUHU216HW,2013-02-24 05:00:00,
2013-02-24 08:05:00,70.4,66.0,29.97,ESE,113,5.6,6.7,86,0.00,,,0.00,WUHU216HW,2013-02-24 05:05:00,
2013-02-24 08:10:00,70.6,65.8,29.97,ESE,113,2.5,5.6,85,0.00,,,0.00,WUHU216HW,2013-02-24 05:10:00,
2013-02-24 08:15:00,70.6,65.8,29.98,ENE,68,5.4,5.6,85,0.00,,,0.00,WUHU216HW,2013-02-24 05:15:00,
2013-02-24 08:20:00,70.7,66.0,29.97,East,90,7.6,8.1,85,0.00,,,0.00,WUHU216HW,2013-02-24 05:20:00,
2013-02-24 08:25:00,70.9,66.2,29.98,ESE,113,3.6,8.1,85,0.00,,,0.00,WUHU216HW,2013-02-24 05:25:00,
2013-02-24 08:30:00,71.1,66.3,29.99,NE,45,4.0,7.8,85,0.00,,,0.00,WUHU216HW,2013-02-24 05:30:00,
2013-02-24 08:35:00,71.5,66.7,29.99,SE,135,0.4,4.9,85,0.00,,,0.00,WUHU216HW,2013-02-24 05:35:00,
2013-02-24 08:40:00,71.6,66.5,30.00,ENE,68,4.5,4.7,84,0.00,,,0.00,WUHU216HW,2013-02-24 05:40:00,
2013-02-24 08:45:00,71.8,66.7,30.01,East,90,0.9,4.7,84,0.00,,,0.00,WUHU216HW,2013-02-24 05:45:00,
2013-02-24 08:50:00,72.4,67.2,30.02,North,0,4.7,7.2,84,0.00,,,0.00,WUHU216HW,2013-02-24 05:50:00,
2013-02-24 08:55:00,72.5,67.1,30.02,East,90,2.2,7.2,83,0.00,,,0.00,WUHU216HW,2013-02-24 05:55:00,
2013-02-24 09:00:00,73.1,67.6,30.02,East,90,3.1,7.2,83,0.00,,,0.00,WUHU216HW,2013-02-24 06:00:00,
2013-02-24 09:05:00,73.4,67.3,30.02,NE,45,4.9,7.6,81,0.00,,,0.00,WUHU216HW,2013-02-24 06:05:00,
2013-02-24 09:10:00,73.8,67.0,30.03,ESE,113,2.0,7.6,79,0.00,,,0.00,WUHU216HW,2013-02-24 06:10:00,
2013-02-24 09:15:00,74.2,66.9,30.03,NE,45,2.5,7.4,78,0.00,,,0.00,WUHU216HW,2013-02-24 06:15:00,
2013-02-24 09:20:00,74.2,66.9,30.03,North,0,7.8,9.8,78,0.00,,,0.00,WUHU216HW,2013-02-24 06:20:00,
2013-02-24 09:25:00,73.8,66.2,30.03,North,0,5.4,9.8,77,0.00,,,0.00,WUHU216HW,2013-02-24 06:25:00,
2013-02-24 09:30:00,73.8,66.2,30.04,ESE,113,5.4,9.8,77,0.00,,,0.00,WUHU216HW,2013-02-24 06:30:00,
2013-02-24 09:35:00,73.8,66.2,30.04,North,0,5.4,8.7,77,0.00,,,0.00,WUHU216HW,2013-02-24 06:35:00,
2013-02-24 09:40:00,74.2,66.5,30.04,North,0,6.3,9.2,77,0.00,,,0.00,WUHU216HW,2013-02-24 06:40:00,
2013-02-24 09:45:00,74.2,65.8,30.04,NNE,23,4.9,9.8,75,0.00,,,0.00,WUHU216HW,2013-02-24 06:45:00,
2013-02-24 09:50:00,74.3,65.9,30.04,NE,45,6.9,9.8,75,0.00,,,0.00,WUHU216HW,2013-02-24 06:50:00,
2013-02-24 09:55:00,74.3,65.9,30.04,NNE,23,6.5,9.6,75,0.00,,,0.00,WUHU216HW,2013-02-24 06:55:00,
2013-02-24 10:00:00,74.2,65.8,30.03,NE,45,6.3,10.3,75,0.00,,,0.00,WUHU216HW,2013-02-24 07:00:00,
2013-02-24 10:05:00,74.0,65.6,30.03,ENE,68,6.3,10.3,75,0.00,,,0.00,WUHU216HW,2013-02-24 07:05:00,
2013-02-24 10:10:00,73.8,65.8,30.03,East,90,4.0,9.4,76,0.00,,,0.00,WUHU216HW,2013-02-24 07:10:00,
2013-02-24 10:15:00,73.8,65.8,30.03,East,90,5.4,10.1,76,0.00,,,0.00,WUHU216HW,2013-02-24 07:15:00,
2013-02-24 10:20:00,73.8,66.2,30.03,NE,45,7.2,10.1,77,0.00,,,0.00,WUHU216HW,2013-02-24 07:20:00,
2013-02-24 10:25:00,74.0,66.0,30.03,ENE,68,7.6,8.9,76,0.00,,,0.00,WUHU216HW,2013-02-24 07:25:00,
2013-02-24 10:30:00,74.0,66.0,30.02,ESE,113,6.9,8.9,76,0.00,,,0.00,WUHU216HW,2013-02-24 07:30:00,
2013-02-24 10:35:00,74.0,66.0,30.02,East,90,7.4,10.5,76,0.00,,,0.00,WUHU216HW,2013-02-24 07:35:00,
2013-02-24 10:40:00,74.2,65.8,30.02,NE,45,8.7,11.0,75,0.00,,,0.00,WUHU216HW,2013-02-24 07:40:00,
2013-02-24 10:45:00,74.0,65.6,30.02,ESE,113,7.6,11.0,75,0.00,,,0.00,WUHU216HW,2013-02-24 07:45:00,
2013-02-24 10:50:00,74.2,65.8,30.02,East,90,9.6,9.6,75,0.00,,,0.00,WUHU216HW,2013-02-24 07:50:00,
2013-02-24 10:55:00,74.5,66.1,30.01,East,90,5.1,9.6,75,0.00,,,0.00,WUHU216HW,2013-02-24 07:55:00,
2013-02-24 11:00:00,74.5,66.1,30.01,ENE,68,5.6,9.6,75,0.00,,,0.00,WUHU216HW,2013-02-24 08:00:00,
2013-02-24 11:05:00,74.5,65.7,30.01,NE,45,5.6,9.6,74,0.00,,,0.00,WUHU216HW,2013-02-24 08:05:00,
2013-02-24 11:10:00,74.5,65.7,30.01,ENE,68,6.3,9.6,74,0.00,,,0.00,WUHU216HW,2013-02-24 08:10:00,
2013-02-24 11:15:00,74.5,65.7,30.01,East,90,5.4,8.7,74,0.00,,,0.00,WUHU216HW,2013-02-24 08:15:00,
2013-02-24 11:20:00,74.3,65.2,30.00,ESE,113,5.4,10.1,73,0.00,,,0.00,WUHU216HW,2013-02-24 08:20:00,
2013-02-24 11:25:00,74.2,65.0,30.00,ESE,113,4.0,10.1,73,0.00,,,0.00,WUHU216HW,2013-02-24 08:25:00,
2013-02-24 11:30:00,74.3,65.5,29.99,ESE,113,8.5,8.5,74,0.00,,,0.00,WUHU216HW,2013-02-24 08:30:00,
2013-02-24 11:36:00,74.5,65.4,29.99,East,90,7.6,8.5,73,0.00,,,0.00,WUHU216HW,2013-02-24 08:36:00,
2013-02-24 11:41:00,74.5,65.4,29.99,East,90,6.0,7.8,73,0.00,,,0.00,WUHU216HW,2013-02-24 08:41:00,
2013-02-24 11:46:00,74.5,65.4,29.99,ESE,113,6.3,7.8,73,0.00,,,0.00,WUHU216HW,2013-02-24 08:46:00,
2013-02-24 11:51:00,74.5,64.9,29.99,ESE,113,5.4,7.4,72,0.00,,,0.00,WUHU216HW,2013-02-24 08:51:00,
2013-02-24 11:56:00,74.7,64.7,29.99,ENE,68,5.1,8.1,71,0.00,,,0.00,WUHU216HW,2013-02-24 08:56:00,
2013-02-24 12:01:00,75.1,65.1,29.99,SE,135,3.4,8.1,71,0.00,,,0.00,WUHU216HW,2013-02-24 09:01:00,
2013-02-24 12:06:00,74.9,64.9,29.99,ENE,68,6.5,7.8,71,0.00,,,0.00,WUHU216HW,2013-02-24 09:06:00,
2013-02-24 12:11:00,74.9,64.9,29.98,ESE,113,6.7,8.3,71,0.00,,,0.00,WUHU216HW,2013-02-24 09:11:00,
2013-02-24 12:16:00,74.9,65.3,29.98,ENE,68,6.3,8.3,72,0.00,,,0.00,WUHU216HW,2013-02-24 09:16:00,
2013-02-24 12:21:00,74.5,64.9,29.97,ENE,68,5.1,6.7,72,0.00,,,0.00,WUHU216HW,2013-02-24 09:21:00,
2013-02-24 12:26:00,74.9,65.6,29.97,ENE,68,4.9,6.3,73,0.00,,,0.00,WUHU216HW,2013-02-24 09:26:00,
2013-02-24 12:31:00,75.2,65.6,29.97,East,90,5.8,7.4,72,0.00,,,0.00,WUHU216HW,2013-02-24 09:31:00,
2013-02-24 12:36:00,75.1,65.1,29.97,East,90,6.3,7.4,71,0.00,,,0.00,WUHU216HW,2013-02-24 09:36:00,
2013-02-24 12:41:00,74.9,64.9,29.96,ENE,68,7.6,8.7,71,0.00,,,0.00,WUHU216HW,2013-02-24 09:41:00,
2013-02-24 12:46:00,74.9,65.6,29.96,ENE,68,5.1,8.7,73,0.00,,,0.00,WUHU216HW,2013-02-24 09:46:00,
2013-02-24 12:51:00,75.1,65.8,29.96,East,90,8.7,8.7,73,0.00,,,0.00,WUHU216HW,2013-02-24 09:51:00,
2013-02-24 12:56:00,74.9,65.6,29.95,East,90,8.3,8.7,73,0.00,,,0.00,WUHU216HW,2013-02-24 09:56:00,
2013-02-24 13:01:00,75.2,65.6,29.95,ENE,68,8.5,9.4,72,0.00,,,0.00,WUHU216HW,2013-02-24 10:01:00,
2013-02-24 13:06:00,75.2,66.0,29.95,ESE,113,7.2,9.4,73,0.00,,,0.00,WUHU216HW,2013-02-24 10:06:00,
2013-02-24 13:11:00,75.4,65.8,29.95,ESE,113,6.5,8.5,72,0.00,,,0.00,WUHU216HW,2013-02-24 10:11:00,
2013-02-24 13:16:00,75.4,65.8,29.94,East,90,7.4,8.1,72,0.00,,,0.00,WUHU216HW,2013-02-24 10:16:00,
2013-02-24 13:21:00,75.6,66.0,29.94,NE,45,4.5,8.1,72,0.00,,,0.00,WUHU216HW,2013-02-24 10:21:00,
2013-02-24 13:26:00,75.6,65.5,29.94,East,90,6.7,7.6,71,0.00,,,0.00,WUHU216HW,2013-02-24 10:26:00,
2013-02-24 13:31:00,75.6,65.5,29.94,East,90,3.8,7.6,71,0.00,,,0.00,WUHU216HW,2013-02-24 10:31:00,
2013-02-24 13:36:00,75.6,65.5,29.94,ESE,113,3.1,8.3,71,0.00,,,0.00,WUHU216HW,2013-02-24 10:36:00,
2013-02-24 13:41:00,76.0,65.9,29.94,East,90,6.9,8.5,71,0.00,,,0.00,WUHU216HW,2013-02-24 10:41:00,
2013-02-24 13:46:00,75.8,65.7,29.94,ESE,113,4.0,8.5,71,0.00,,,0.00,WUHU216HW,2013-02-24 10:46:00,
2013-02-24 13:51:00,75.8,65.7,29.93,East,90,2.7,8.5,71,0.00,,,0.00,WUHU216HW,2013-02-24 10:51:00,
2013-02-24 13:56:00,75.6,66.0,29.93,SSE,158,4.7,7.6,72,0.00,,,0.00,WUHU216HW,2013-02-24 10:56:00,
2013-02-24 14:01:00,75.8,66.2,29.94,ESE,113,7.2,8.5,72,0.00,,,0.00,WUHU216HW,2013-02-24 11:01:00,
2013-02-24 14:06:00,75.4,65.8,29.93,ESE,113,7.2,8.7,72,0.00,,,0.00,WUHU216HW,2013-02-24 11:06:00,
2013-02-24 14:11:00,75.6,66.3,29.93,ENE,68,5.4,9.2,73,0.00,,,0.00,WUHU216HW,2013-02-24 11:11:00,
2013-02-24 14:16:00,75.6,66.3,29.93,East,90,7.8,9.6,73,0.00,,,0.00,WUHU216HW,2013-02-24 11:16:00,
2013-02-24 14:21:00,75.8,66.2,29.92,ENE,68,6.3,9.6,72,0.00,,,0.00,WUHU216HW,2013-02-24 11:21:00,
2013-02-24 14:26:00,75.6,66.0,29.92,ESE,113,5.4,10.1,72,0.00,,,0.00,WUHU216HW,2013-02-24 11:26:00,
2013-02-24 14:31:00,75.6,66.0,29.92,East,90,8.5,10.1,72,0.00,,,0.00,WUHU216HW,2013-02-24 11:31:00,
2013-02-24 14:36:00,75.4,65.8,29.92,ESE,113,6.3,9.2,72,0.00,,,0.00,WUHU216HW,2013-02-24 11:36:00,
2013-02-24 14:41:00,75.4,66.2,29.92,East,90,6.5,8.5,73,0.00,,,0.00,WUHU216HW,2013-02-24 11:41:00,
2013-02-24 14:46:00,75.4,66.2,29.92,ESE,113,9.4,9.8,73,0.00,,,0.00,WUHU216HW,2013-02-24 11:46:00,
2013-02-24 14:51:00,75.4,66.2,29.92,East,90,8.5,9.8,73,0.00,,,0.00,WUHU216HW,2013-02-24 11:51:00,
2013-02-24 14:56:00,75.4,66.2,29.92,ENE,68,6.9,9.8,73,0.00,,,0.00,WUHU216HW,2013-02-24 11:56:00,
2013-02-24 15:01:00,75.6,66.3,29.92,ESE,113,7.2,9.8,73,0.00,,,0.00,WUHU216HW,2013-02-24 12:01:00,
2013-02-24 15:06:00,75.4,66.6,29.92,ESE,113,6.0,8.1,74,0.00,,,0.00,WUHU216HW,2013-02-24 12:06:00,
2013-02-24 15:11:00,75.4,66.2,29.92,ESE,113,4.9,8.1,73,0.00,,,0.00,WUHU216HW,2013-02-24 12:11:00,
2013-02-24 15:16:00,75.4,66.2,29.92,East,90,7.8,7.8,73,0.00,,,0.00,WUHU216HW,2013-02-24 12:16:00,
2013-02-24 15:21:00,75.6,66.0,29.92,East,90,5.8,9.2,72,0.00,,,0.00,WUHU216HW,2013-02-24 12:21:00,
2013-02-24 15:26:00,75.4,66.2,29.92,East,90,6.3,9.2,73,0.00,,,0.00,WUHU216HW,2013-02-24 12:26:00,
2013-02-24 15:31:00,75.2,66.4,29.92,ESE,113,5.4,7.8,74,0.00,,,0.00,WUHU216HW,2013-02-24 12:31:00,
2013-02-24 15:36:00,75.2,66.4,29.92,ESE,113,5.4,7.2,74,0.00,,,0.00,WUHU216HW,2013-02-24 12:36:00,
2013-02-24 15:41:00,75.6,66.7,29.92,SE,135,3.1,6.3,74,0.00,,,0.00,WUHU216HW,2013-02-24 12:41:00,
2013-02-24 15:46:00,75.6,66.3,29.92,ENE,68,2.5,7.6,73,0.00,,,0.00,WUHU216HW,2013-02-24 12:46:00,
2013-02-24 15:51:00,75.2,66.8,29.93,ESE,113,4.3,8.5,75,0.00,,,0.00,WUHU216HW,2013-02-24 12:51:00,
2013-02-24 15:56:00,75.1,66.6,29.93,ESE,113,3.1,8.5,75,0.00,,,0.00,WUHU216HW,2013-02-24 12:56:00,
2013-02-24 16:01:00,75.2,66.8,29.93,SE,135,3.1,6.9,75,0.00,,,0.00,WUHU216HW,2013-02-24 13:01:00,
2013-02-24 16:06:00,75.4,67.0,29.93,ESE,113,4.7,7.4,75,0.00,,,0.00,WUHU216HW,2013-02-24 13:06:00,
2013-02-24 16:11:00,75.2,66.8,29.93,ESE,113,3.6,7.4,75,0.00,,,0.00,WUHU216HW,2013-02-24 13:11:00,
2013-02-24 16:16:00,75.4,67.0,29.93,ESE,113,4.0,5.4,75,0.00,,,0.00,WUHU216HW,2013-02-24 13:16:00,
2013-02-24 16:21:00,75.2,66.8,29.94,East,90,3.4,4.7,75,0.00,,,0.00,WUHU216HW,2013-02-24 13:21:00,
2013-02-24 16:26:00,75.2,66.8,29.94,SE,135,1.8,4.7,75,0.00,,,0.00,WUHU216HW,2013-02-24 13:26:00,
2013-02-24 16:31:00,75.4,66.6,29.94,ENE,68,2.5,3.8,74,0.00,,,0.00,WUHU216HW,2013-02-24 13:31:00,
2013-02-24 16:36:00,75.1,65.8,29.94,SE,135,0.7,4.5,73,0.00,,,0.00,WUHU216HW,2013-02-24 13:36:00,
2013-02-24 16:41:00,74.9,66.1,29.94,SSE,158,1.6,4.5,74,0.00,,,0.00,WUHU216HW,2013-02-24 13:41:00,
2013-02-24 16:46:00,74.5,65.4,29.94,SE,135,3.8,4.5,73,0.00,,,0.00,WUHU216HW,2013-02-24 13:46:00,
2013-02-24 16:51:00,74.3,64.8,29.94,ESE,113,1.6,4.5,72,0.00,,,0.00,WUHU216HW,2013-02-24 13:51:00,
2013-02-24 16:56:00,74.2,64.6,29.94,ESE,113,2.9,4.0,72,0.00,,,0.00,WUHU216HW,2013-02-24 13:56:00,
2013-02-24 17:01:00,74.2,64.6,29.94,ENE,68,0.9,3.8,72,0.00,,,0.00,WUHU216HW,2013-02-24 14:01:00,
2013-02-24 17:06:00,74.2,64.6,29.94,SE,135,2.0,2.9,72,0.00,,,0.00,WUHU216HW,2013-02-24 14:06:00,
2013-02-24 17:11:00,73.8,63.6,29.94,SE,135,2.5,4.0,70,0.00,,,0.00,WUHU216HW,2013-02-24 14:11:00,
2013-02-24 17:16:00,73.8,63.6,29.94,SE,135,1.1,4.0,70,0.00,,,0.00,WUHU216HW,2013-02-24 14:16:00,
2013-02-24 17:21:00,74.0,63.6,29.94,SE,135,1.8,2.7,70,0.00,,,0.00,WUHU216HW,2013-02-24 14:21:00,
2013-02-24 17:26:00,73.8,63.6,29.94,East,90,3.4,3.4,70,0.00,,,0.00,WUHU216HW,2013-02-24 14:26:00,
2013-02-24 17:31:00,73.8,63.9,29.94,East,90,4.0,4.0,71,0.00,,,0.00,WUHU216HW,2013-02-24 14:31:00,
2013-02-24 17:36:00,73.4,64.4,29.94,East,90,1.1,4.0,73,0.00,,,0.00,WUHU216HW,2013-02-24 14:36:00,
2013-02-24 17:41:00,73.1,64.4,29.95,East,90,1.6,4.0,74,0.00,,,0.00,WUHU216HW,2013-02-24 14:41:00,
2013-02-24 17:46:00,72.9,64.5,29.95,East,90,1.1,2.9,75,0.00,,,0.00,WUHU216HW,2013-02-24 14:46:00,
2013-02-24 17:51:00,72.9,64.5,29.95,East,90,0.4,2.9,75,0.00,,,0.00,WUHU216HW,2013-02-24 14:51:00,
2013-02-24 17:56:00,72.7,64.4,29.95,ENE,68,0.9,2.2,75,0.00,,,0.00,WUHU216HW,2013-02-24 14:56:00,
2013-02-24 18:01:00,72.7,64.4,29.96,ENE,68,1.8,2.0,75,0.00,,,0.00,WUHU216HW,2013-02-24 15:01:00,
2013-02-24 18:06:00,72.5,64.2,29.96,ENE,68,0.0,2.0,75,0.00,,,0.00,WUHU216HW,2013-02-24 15:06:00,
2013-02-24 18:11:00,72.4,64.0,29.96,NE,45,0.0,0.9,75,0.00,,,0.00,WUHU216HW,2013-02-24 15:11:00,
2013-02-24 18:16:00,72.4,64.0,29.96,East,90,0.7,0.7,75,0.00,,,0.00,WUHU216HW,2013-02-24 15:16:00,
2013-02-24 18:21:00,72.5,64.2,29.96,East,90,1.8,1.8,75,0.00,,,0.00,WUHU216HW,2013-02-24 15:21:00,
2013-02-24 18:26:00,72.4,64.0,29.96,ESE,113,1.3,2.0,75,0.00,,,0.00,WUHU216HW,2013-02-24 15:26:00,
2013-02-24 18:31:00,72.4,64.4,29.96,ESE,113,1.1,2.0,76,0.00,,,0.00,WUHU216HW,2013-02-24 15:31:00,
2013-02-24 18:36:00,72.4,64.4,29.97,ENE,68,1.3,2.0,76,0.00,,,0.00,WUHU216HW,2013-02-24 15:36:00,
2013-02-24 18:41:00,72.4,64.4,29.96,ENE,68,2.2,3.6,76,0.00,,,0.00,WUHU216HW,2013-02-24 15:41:00,
2013-02-24 18:46:00,72.5,64.5,29.97,ESE,113,1.1,3.6,76,0.00,,,0.00,WUHU216HW,2013-02-24 15:46:00,
2013-02-24 18:51:00,72.5,64.2,29.97,East,90,0.2,3.1,75,0.00,,,0.00,WUHU216HW,2013-02-24 15:51:00,
2013-02-24 18:56:00,72.7,64.4,29.97,East,90,0.0,1.1,75,0.00,,,0.00,WUHU216HW,2013-02-24 15:56:00,
2013-02-24 19:01:00,72.5,64.2,29.97,East,90,0.0,0.4,75,0.00,,,0.00,WUHU216HW,2013-02-24 16:01:00,
2013-02-24 19:06:00,72.5,64.2,29.98,East,90,0.0,0.4,75,0.00,,,0.00,WUHU216HW,2013-02-24 16:06:00,
2013-02-24 19:11:00,72.4,64.0,29.98,North,0,1.1,1.1,75,0.00,,,0.00,WUHU216HW,2013-02-24 16:11:00,
2013-02-24 19:16:00,72.4,64.0,29.99,North,0,0.2,3.1,75,0.00,,,0.00,WUHU216HW,2013-02-24 16:16:00,
2013-02-24 19:21:00,72.4,63.6,29.99,NNW,338,0.4,3.1,74,0.00,,,0.00,WUHU216HW,2013-02-24 16:21:00,
2013-02-24 19:26:00,72.4,63.3,29.99,NW,315,1.3,1.8,73,0.00,,,0.00,WUHU216HW,2013-02-24 16:26:00,
2013-02-24 19:31:00,72.4,62.8,29.99,NW,315,1.8,2.2,72,0.00,,,0.00,WUHU216HW,2013-02-24 16:31:00,
2013-02-24 19:36:00,72.4,62.8,30.00,NW,315,1.8,3.4,72,0.00,,,0.00,WUHU216HW,2013-02-24 16:36:00,
2013-02-24 19:41:00,72.2,63.1,30.00,NNW,338,3.4,5.4,73,0.00,,,0.00,WUHU216HW,2013-02-24 16:41:00,
2013-02-24 19:46:00,72.2,62.6,30.00,NNW,338,2.7,5.4,72,0.00,,,0.00,WUHU216HW,2013-02-24 16:46:00,
2013-02-24 19:51:00,72.2,61.5,30.00,WNW,293,3.4,5.1,69,0.00,,,0.00,WUHU216HW,2013-02-24 16:51:00,
2013-02-24 19:56:00,72.4,60.3,30.00,NW,315,3.4,5.1,66,0.00,,,0.00,WUHU216HW,2013-02-24 16:56:00,
2013-02-24 20:01:00,72.5,60.0,30.00,NW,315,4.3,4.9,65,0.00,,,0.00,WUHU216HW,2013-02-24 17:01:00,
2013-02-24 20:06:00,72.5,59.2,30.00,NNW,338,4.5,4.9,63,0.00,,,0.00,WUHU216HW,2013-02-24 17:06:00,
2013-02-24 20:11:00,72.7,59.8,30.01,NW,315,5.4,6.3,64,0.00,,,0.00,WUHU216HW,2013-02-24 17:11:00,
2013-02-24 20:16:00,72.5,60.0,30.01,NW,315,4.7,6.3,65,0.00,,,0.00,WUHU216HW,2013-02-24 17:16:00,
2013-02-24 20:21:00,72.4,59.1,30.01,West,270,6.5,6.5,63,0.00,,,0.00,WUHU216HW,2013-02-24 17:21:00,
2013-02-24 20:26:00,72.4,54.7,30.01,NW,315,9.6,10.3,54,0.00,,,0.00,WUHU216HW,2013-02-24 17:26:00,
2013-02-24 20:31:00,72.7,53.0,30.01,NW,315,9.8,11.4,50,0.00,,,0.00,WUHU216HW,2013-02-24 17:31:00,
2013-02-24 20:37:00,72.9,52.6,30.01,NW,315,8.5,11.6,49,0.00,,,0.00,WUHU216HW,2013-02-24 17:37:00,
2013-02-24 20:41:00,72.9,52.6,30.01,NW,315,8.1,11.6,49,0.00,,,0.00,WUHU216HW,2013-02-24 17:41:00,
2013-02-24 20:46:00,72.7,53.0,30.02,NW,315,10.1,10.5,50,0.00,,,0.00,WUHU216HW,2013-02-24 17:46:00,
2013-02-24 20:51:00,72.7,53.0,30.02,NW,315,7.6,13.2,50,0.00,,,0.00,WUHU216HW,2013-02-24 17:51:00,
2013-02-24 20:57:00,72.5,53.4,30.02,NE,45,6.5,13.2,51,0.00,,,0.00,WUHU216HW,2013-02-24 17:57:00,
2013-02-24 21:02:00,72.4,54.2,30.02,NW,315,11.0,14.8,53,0.00,,,0.00,WUHU216HW,2013-02-24 18:02:00,
2013-02-24 21:07:00,72.2,54.6,30.02,NW,315,9.2,15.7,54,0.00,,,0.00,WUHU216HW,2013-02-24 18:07:00,
2013-02-24 21:12:00,72.0,55.9,30.03,NNW,338,11.0,15.7,57,0.00,,,0.00,WUHU216HW,2013-02-24 18:12:00,
2013-02-24 21:17:00,71.8,56.3,30.03,NW,315,11.4,15.2,58,0.00,,,0.00,WUHU216HW,2013-02-24 18:17:00,
2013-02-24 21:22:00,71.6,57.1,30.03,NW,315,6.5,15.2,60,0.00,,,0.00,WUHU216HW,2013-02-24 18:22:00,
2013-02-24 21:27:00,71.5,57.3,30.03,North,0,8.5,11.9,61,0.00,,,0.00,WUHU216HW,2013-02-24 18:27:00,
2013-02-24 21:32:00,71.1,57.9,30.03,NNW,338,12.1,12.8,63,0.00,,,0.00,WUHU216HW,2013-02-24 18:32:00,
2013-02-24 21:37:00,70.9,58.2,30.03,NW,315,12.3,12.8,64,0.00,,,0.00,WUHU216HW,2013-02-24 18:37:00,
2013-02-24 21:42:00,70.7,58.3,30.03,NW,315,4.9,12.3,65,0.00,,,0.00,WUHU216HW,2013-02-24 18:42:00,
2013-02-24 21:47:00,70.6,59.1,30.03,NNW,338,5.6,14.1,67,0.00,,,0.00,WUHU216HW,2013-02-24 18:47:00,
2013-02-24 21:52:00,70.4,59.3,30.03,NNW,338,7.6,14.1,68,0.00,,,0.00,WUHU216HW,2013-02-24 18:52:00,
2013-02-24 21:57:00,70.4,59.3,30.04,NNW,338,6.9,13.0,68,0.00,,,0.00,WUHU216HW,2013-02-24 18:57:00,
2013-02-24 22:02:00,70.2,59.5,30.03,NW,315,9.2,12.8,69,0.00,,,0.00,WUHU216HW,2013-02-24 19:02:00,
2013-02-24 22:07:00,70.2,59.5,30.04,NW,315,8.3,12.1,69,0.00,,,0.00,WUHU216HW,2013-02-24 19:07:00,
2013-02-24 22:12:00,70.0,59.8,30.04,NW,315,11.4,12.1,70,0.00,,,0.00,WUHU216HW,2013-02-24 19:12:00,
2013-02-24 22:17:00,70.0,60.1,30.04,NNW,338,10.5,11.4,71,0.00,,,0.00,WUHU216HW,2013-02-24 19:17:00,
2013-02-24 22:22:00,69.8,60.3,30.04,NNW,338,9.8,13.6,72,0.00,,,0.00,WUHU216HW,2013-02-24 19:22:00,
2013-02-24 22:27:00,69.8,60.3,30.04,North,0,8.5,13.6,72,0.00,,,0.00,WUHU216HW,2013-02-24 19:27:00,
2013-02-24 22:32:00,69.7,60.2,30.04,NNW,338,9.4,10.7,72,0.00,,,0.00,WUHU216HW,2013-02-24 19:32:00,
2013-02-24 22:37:00,69.5,59.7,30.04,North,0,10.1,12.1,71,0.00,,,0.00,WUHU216HW,2013-02-24 19:37:00,
2013-02-24 22:42:00,69.5,60.0,30.04,NNW,338,6.9,12.5,72,0.00,,,0.00,WUHU216HW,2013-02-24 19:42:00,
2013-02-24 22:47:00,69.3,59.9,30.04,NNW,338,7.6,13.4,72,0.00,,,0.00,WUHU216HW,2013-02-24 19:47:00,
2013-02-24 22:52:00,69.3,59.9,30.04,North,0,5.4,13.4,72,0.00,,,0.00,WUHU216HW,2013-02-24 19:52:00,
2013-02-24 22:57:00,69.1,60.5,30.04,NW,315,6.3,12.1,74,0.00,,,0.00,WUHU216HW,2013-02-24 19:57:00,
2013-02-24 23:02:00,68.9,60.3,30.03,NW,315,8.5,12.1,74,0.00,,,0.00,WUHU216HW,2013-02-24 20:02:00,
2013-02-24 23:07:00,68.8,60.1,30.03,NNW,338,9.2,12.1,74,0.00,,,0.00,WUHU216HW,2013-02-24 20:07:00,
2013-02-24 23:12:00,68.8,60.1,30.04,NW,315,6.9,13.9,74,0.00,,,0.00,WUHU216HW,2013-02-24 20:12:00,
2013-02-24 23:17:00,68.8,59.8,30.04,NNE,23,7.2,13.9,73,0.00,,,0.00,WUHU216HW,2013-02-24 20:17:00,
2013-02-24 23:22:00,68.6,59.2,30.04,NNW,338,5.8,13.9,72,0.00,,,0.00,WUHU216HW,2013-02-24 20:22:00,
2013-02-24 23:27:00,68.6,58.9,30.03,North,0,6.7,9.6,71,0.00,,,0.00,WUHU216HW,2013-02-24 20:27:00,
2013-02-24 23:32:00,68.6,58.4,30.03,NNE,23,6.3,9.4,70,0.00,,,0.00,WUHU216HW,2013-02-24 20:32:00,
2013-02-24 23:37:00,68.6,58.4,30.03,North,0,7.6,9.8,70,0.00,,,0.00,WUHU216HW,2013-02-24 20:37:00,
2013-02-24 23:42:00,68.6,58.4,30.03,NW,315,6.0,9.8,70,0.00,,,0.00,WUHU216HW,2013-02-24 20:42:00,
2013-02-24 23:47:00,68.4,58.3,30.03,NW,315,4.0,8.3,70,0.00,,,0.00,WUHU216HW,2013-02-24 20:47:00,
2013-02-24 23:52:00,68.4,58.7,30.04,NNW,338,4.7,8.7,71,0.00,,,0.00,WUHU216HW,2013-02-24 20:52:00,
2013-02-24 23:57:00,68.2,58.5,30.03,NNW,338,4.7,8.7,71,0.00,,,0.00,WUHU216HW,2013-02-24 20:57:00,